SCX1981 KMSP-KDTW

Flight info

Callsign SCX1981
Flight time 1h 15m
Altitude 35000
Route COULT7 DLL PORZL RKCTY2
Aircraft B738/M-SDE2E3FGHIRWXY/LB1

Departure

Time 2026-05-07 03:34
Airport Minneapolis–Saint Paul International Airport / Wold–Chamberlain Field (KMSP)

Arrival

Time 2026-05-07 04:50
Airport Detroit Metropolitan Wayne County Airport (KDTW)
Time Latitude Longitude Altitude Speed Heading
2026-05-07 02:58 44.87430 -93.22945 824 ft 0 kts 135°
2026-05-07 03:23 44.87437 -93.22955 824 ft 4 kts 135°
2026-05-07 03:24 44.87456 -93.22982 820 ft 4 kts 135°
2026-05-07 03:24 44.87475 -93.23009 822 ft 4 kts 135°
2026-05-07 03:24 44.87493 -93.23034 824 ft 2 kts 135°
2026-05-07 03:24 44.87493 -93.23035 824 ft 0 kts 135°
2026-05-07 03:27 44.87493 -93.23034 824 ft 1 kts 133°
2026-05-07 03:27 44.87503 -93.22999 824 ft 8 kts 36°
2026-05-07 03:28 44.87566 -93.22936 822 ft 13 kts 36°
2026-05-07 03:28 44.87638 -93.22841 823 ft 16 kts 45°
2026-05-07 03:28 44.87721 -93.22725 821 ft 18 kts 45°
2026-05-07 03:28 44.87815 -93.22593 824 ft 20 kts 45°
2026-05-07 03:29 44.87918 -93.22448 824 ft 21 kts 45°
2026-05-07 03:29 44.88017 -93.22302 825 ft 17 kts 46°
2026-05-07 03:29 44.88081 -93.22206 823 ft 13 kts 48°
2026-05-07 03:29 44.88075 -93.22089 825 ft 13 kts 120°
2026-05-07 03:30 44.88024 -93.21972 822 ft 16 kts 121°
2026-05-07 03:30 44.87961 -93.21825 824 ft 18 kts 121°
2026-05-07 03:30 44.87897 -93.21676 823 ft 18 kts 121°
2026-05-07 03:30 44.87835 -93.21532 824 ft 17 kts 121°
2026-05-07 03:31 44.87774 -93.21393 824 ft 17 kts 122°
2026-05-07 03:31 44.87711 -93.21246 822 ft 18 kts 121°
2026-05-07 03:31 44.87646 -93.21097 823 ft 17 kts 121°
2026-05-07 03:31 44.87584 -93.20954 824 ft 17 kts 121°
2026-05-07 03:32 44.87524 -93.20815 824 ft 16 kts 121°
2026-05-07 03:32 44.87454 -93.20697 824 ft 16 kts 145°
2026-05-07 03:32 44.87370 -93.20602 824 ft 17 kts 131°
2026-05-07 03:32 44.87303 -93.20451 824 ft 16 kts 121°
2026-05-07 03:33 44.87244 -93.20316 824 ft 16 kts 120°
2026-05-07 03:33 44.87285 -93.20196 825 ft 15 kts 32°
2026-05-07 03:33 44.87377 -93.20184 826 ft 15 kts 319°
2026-05-07 03:33 44.87436 -93.20314 822 ft 21 kts 301°
2026-05-07 03:34 44.87631 -93.20761 821 ft 90 kts 303°
2026-05-07 03:34 44.88071 -93.21784 823 ft 152 kts 301°
2026-05-07 03:34 44.88671 -93.23163 1266 ft 174 kts 301°
2026-05-07 03:34 44.89164 -93.24749 2115 ft 180 kts 276°
2026-05-07 03:35 44.89041 -93.26529 2892 ft 191 kts 262°
2026-05-07 03:35 44.88763 -93.28495 3143 ft 217 kts 260°
2026-05-07 03:35 44.88272 -93.30571 3589 ft 231 kts 239°
2026-05-07 03:35 44.87054 -93.32119 4072 ft 250 kts 208°
2026-05-07 03:36 44.85313 -93.32637 4667 ft 266 kts 179°
2026-05-07 03:36 44.83494 -93.32243 5603 ft 268 kts 171°
2026-05-07 03:36 44.81668 -93.31674 6520 ft 271 kts 169°
2026-05-07 03:36 44.79935 -93.30502 7266 ft 285 kts 143°
2026-05-07 03:37 44.78652 -93.28323 8066 ft 294 kts 123°
2026-05-07 03:37 44.77617 -93.25811 8831 ft 301 kts 121°
2026-05-07 03:37 44.76591 -93.23206 9597 ft 307 kts 120°
2026-05-07 03:37 44.75675 -93.20457 10316 ft 315 kts 105°
2026-05-07 03:38 44.75271 -93.17326 10593 ft 338 kts 95°
2026-05-07 03:38 44.75078 -93.13921 10786 ft 361 kts 92°
2026-05-07 03:38 44.74918 -93.10299 11097 ft 379 kts 92°
2026-05-07 03:38 44.74728 -93.06557 11710 ft 386 kts 94°
2026-05-07 03:39 44.74500 -93.02784 12476 ft 389 kts 94°
2026-05-07 03:39 44.74238 -92.98976 13244 ft 392 kts 95°
2026-05-07 03:39 44.73954 -92.95135 13958 ft 397 kts 95°
2026-05-07 03:39 44.73653 -92.91253 14601 ft 401 kts 96°
2026-05-07 03:40 44.73344 -92.87337 15251 ft 405 kts 96°
2026-05-07 03:40 44.73032 -92.83436 15872 ft 409 kts 96°
2026-05-07 03:40 44.72712 -92.79441 16499 ft 413 kts 96°
2026-05-07 03:40 44.72387 -92.75401 17126 ft 417 kts 96°
2026-05-07 03:41 44.72059 -92.71325 17740 ft 422 kts 96°
2026-05-07 03:41 44.71726 -92.67209 18338 ft 426 kts 96°
2026-05-07 03:41 44.71389 -92.63044 18851 ft 430 kts 96°
2026-05-07 03:41 44.71047 -92.58848 19415 ft 433 kts 96°
2026-05-07 03:42 44.70689 -92.54635 19950 ft 436 kts 98°
2026-05-07 03:42 44.69973 -92.50475 20457 ft 439 kts 110°
2026-05-07 03:42 44.68779 -92.46521 20984 ft 441 kts 119°
2026-05-07 03:42 44.67143 -92.42875 21503 ft 442 kts 128°
2026-05-07 03:43 44.65315 -92.39378 22001 ft 445 kts 129°
2026-05-07 03:43 44.63455 -92.35878 22477 ft 449 kts 129°
2026-05-07 03:43 44.61615 -92.32386 22953 ft 452 kts 128°
2026-05-07 03:43 44.59754 -92.28804 23433 ft 455 kts 128°
2026-05-07 03:44 44.57892 -92.25188 23848 ft 459 kts 128°
2026-05-07 03:44 44.56022 -92.21552 24240 ft 461 kts 128°
2026-05-07 03:44 44.54133 -92.17886 24625 ft 464 kts 128°
2026-05-07 03:44 44.52231 -92.14208 25006 ft 467 kts 128°
2026-05-07 03:45 44.50316 -92.10512 25380 ft 469 kts 128°
2026-05-07 03:45 44.48394 -92.06806 25751 ft 472 kts 128°
2026-05-07 03:45 44.46456 -92.03073 26095 ft 474 kts 129°
2026-05-07 03:45 44.44507 -91.99321 26443 ft 477 kts 129°
2026-05-07 03:46 44.42550 -91.95558 26786 ft 479 kts 129°
2026-05-07 03:46 44.40581 -91.91774 27115 ft 482 kts 129°
2026-05-07 03:46 44.38628 -91.88029 27420 ft 484 kts 129°
2026-05-07 03:46 44.36679 -91.84165 27733 ft 488 kts 124°
2026-05-07 03:47 44.34983 -91.80025 28044 ft 492 kts 121°
2026-05-07 03:47 44.33378 -91.75779 28335 ft 495 kts 120°
2026-05-07 03:47 44.31798 -91.71495 28623 ft 497 kts 119°
2026-05-07 03:47 44.30211 -91.67185 28901 ft 500 kts 120°
2026-05-07 03:48 44.28609 -91.62874 29284 ft 500 kts 120°
2026-05-07 03:48 44.26997 -91.58585 29751 ft 498 kts 120°
2026-05-07 03:48 44.25377 -91.54316 30179 ft 497 kts 121°
2026-05-07 03:48 44.23777 -91.50132 30456 ft 497 kts 121°
2026-05-07 03:49 44.22118 -91.45808 30695 ft 499 kts 121°
2026-05-07 03:49 44.20497 -91.41598 30948 ft 500 kts 121°
2026-05-07 03:49 44.18850 -91.37323 31230 ft 501 kts 121°
2026-05-07 03:49 44.17195 -91.33032 31503 ft 501 kts 121°
2026-05-07 03:50 44.15539 -91.28743 31762 ft 502 kts 121°
2026-05-07 03:50 44.13882 -91.24456 32023 ft 503 kts 121°
2026-05-07 03:50 44.12223 -91.20169 32291 ft 504 kts 121°
2026-05-07 03:50 44.10562 -91.15884 32558 ft 504 kts 121°
2026-05-07 03:51 44.08897 -91.11595 32804 ft 505 kts 122°
2026-05-07 03:51 44.07214 -91.07268 33052 ft 506 kts 122°
2026-05-07 03:51 44.05534 -91.02954 33314 ft 507 kts 122°
2026-05-07 03:51 44.03856 -90.98650 33548 ft 507 kts 122°
2026-05-07 03:52 44.02190 -90.94385 33790 ft 508 kts 122°
2026-05-07 03:52 44.00503 -90.90073 34032 ft 508 kts 122°
2026-05-07 03:52 43.98812 -90.85758 34283 ft 508 kts 122°
2026-05-07 03:52 43.97126 -90.81458 34547 ft 506 kts 122°
2026-05-07 03:53 43.95442 -90.77172 34781 ft 506 kts 122°
2026-05-07 03:53 43.93749 -90.72871 34971 ft 507 kts 122°
2026-05-07 03:53 43.92061 -90.68590 35065 ft 508 kts 122°
2026-05-07 03:54 43.88649 -90.59957 35060 ft 509 kts 123°
2026-05-07 03:54 43.85249 -90.51377 35062 ft 507 kts 123°
2026-05-07 03:55 43.81851 -90.42826 35057 ft 506 kts 123°
2026-05-07 03:55 43.78450 -90.34297 35051 ft 505 kts 123°
2026-05-07 03:56 43.75049 -90.25792 35059 ft 505 kts 123°
2026-05-07 03:56 43.71657 -90.17336 35055 ft 506 kts 123°
2026-05-07 03:57 43.68227 -90.08811 35066 ft 508 kts 123°
2026-05-07 03:57 43.64782 -90.00270 35075 ft 509 kts 123°
2026-05-07 03:58 43.61325 -89.91725 35072 ft 511 kts 124°
2026-05-07 03:58 43.57849 -89.83157 35074 ft 512 kts 124°
2026-05-07 03:59 43.54974 -89.74179 35075 ft 521 kts 109°
2026-05-07 03:59 43.53719 -89.64286 35083 ft 525 kts 99°
2026-05-07 04:00 43.52822 -89.54260 35065 ft 526 kts 99°
2026-05-07 04:00 43.51885 -89.44259 35066 ft 526 kts 99°
2026-05-07 04:01 43.50890 -89.34308 35064 ft 523 kts 100°
2026-05-07 04:01 43.49869 -89.24400 35066 ft 521 kts 100°
2026-05-07 04:02 43.48845 -89.14551 35063 ft 520 kts 100°
2026-05-07 04:02 43.47987 -89.06331 35056 ft 520 kts 100°
2026-05-07 04:03 43.46784 -88.94880 35065 ft 520 kts 101°
2026-05-07 04:03 43.45738 -88.85015 35066 ft 522 kts 101°
2026-05-07 04:04 43.44858 -88.76787 35073 ft 523 kts 101°
2026-05-07 04:04 43.43789 -88.66861 35064 ft 525 kts 101°
2026-05-07 04:05 43.42707 -88.56897 35071 ft 527 kts 101°
2026-05-07 04:05 43.41611 -88.46890 35057 ft 530 kts 101°
2026-05-07 04:06 43.40503 -88.36853 35046 ft 531 kts 101°
2026-05-07 04:06 43.39385 -88.26808 35041 ft 532 kts 101°
2026-05-07 04:07 43.38257 -88.16752 35041 ft 532 kts 101°
2026-05-07 04:07 43.37119 -88.06700 35041 ft 532 kts 102°
2026-05-07 04:08 43.35974 -87.96662 35039 ft 532 kts 102°
2026-05-07 04:08 43.34828 -87.86692 35036 ft 531 kts 102°
2026-05-07 04:09 43.33665 -87.76658 35035 ft 531 kts 102°
2026-05-07 04:09 43.32496 -87.66654 35030 ft 530 kts 102°
2026-05-07 04:10 43.31318 -87.56650 35034 ft 530 kts 102°
2026-05-07 04:10 43.30134 -87.46665 35031 ft 530 kts 103°
2026-05-07 04:11 43.28940 -87.36680 35037 ft 530 kts 103°
2026-05-07 04:11 43.27744 -87.26752 35036 ft 531 kts 103°
2026-05-07 04:12 43.26531 -87.16748 35040 ft 531 kts 103°
2026-05-07 04:12 43.25308 -87.06744 35044 ft 533 kts 103°
2026-05-07 04:13 43.24086 -86.96709 35047 ft 534 kts 103°
2026-05-07 04:13 43.22897 -86.86929 35028 ft 534 kts 103°
2026-05-07 04:14 43.21720 -86.77185 35030 ft 534 kts 103°
2026-05-07 04:14 43.20556 -86.67502 35023 ft 534 kts 103°
2026-05-07 04:15 43.20221 -86.57307 35033 ft 540 kts 83°
2026-05-07 04:15 43.21941 -86.47306 35028 ft 540 kts 73°
2026-05-07 04:16 43.23896 -86.37415 35018 ft 540 kts 75°
2026-05-07 04:16 43.25750 -86.27449 35013 ft 541 kts 75°
2026-05-07 04:17 43.27577 -86.17394 35014 ft 542 kts 75°
2026-05-07 04:17 43.29403 -86.07361 34996 ft 542 kts 76°
2026-05-07 04:17 43.30022 -86.02262 34979 ft 541 kts 89°
2026-05-07 04:18 43.30091 -85.97106 35031 ft 539 kts 92°
2026-05-07 04:18 43.30029 -85.86792 34993 ft 540 kts 92°
2026-05-07 04:18 43.30002 -85.81596 34516 ft 547 kts 92°
2026-05-07 04:19 43.29999 -85.76374 33913 ft 547 kts 92°
2026-05-07 04:19 43.30017 -85.71141 33174 ft 548 kts 92°
2026-05-07 04:19 43.30045 -85.65968 32488 ft 548 kts 91°
2026-05-07 04:19 43.30075 -85.60733 31801 ft 548 kts 92°
2026-05-07 04:20 43.30102 -85.55508 31100 ft 548 kts 92°
2026-05-07 04:20 43.30124 -85.50268 30384 ft 548 kts 92°
2026-05-07 04:20 43.30142 -85.45049 29810 ft 544 kts 92°
2026-05-07 04:21 43.30167 -85.34837 28656 ft 532 kts 92°
2026-05-07 04:21 43.30176 -85.29725 28130 ft 526 kts 92°
2026-05-07 04:21 43.30118 -85.24735 27580 ft 518 kts 99°
2026-05-07 04:21 43.29374 -85.19989 27101 ft 502 kts 115°
2026-05-07 04:22 43.27855 -85.15792 26613 ft 484 kts 129°
2026-05-07 04:22 43.26020 -85.11960 26113 ft 478 kts 130°
2026-05-07 04:22 43.24179 -85.08182 25589 ft 474 kts 130°
2026-05-07 04:22 43.22366 -85.04428 25079 ft 470 kts 130°
2026-05-07 04:23 43.20586 -85.00688 24585 ft 467 kts 129°
2026-05-07 04:23 43.18831 -84.96955 24089 ft 464 kts 129°
2026-05-07 04:23 43.17095 -84.93246 23595 ft 461 kts 129°
2026-05-07 04:23 43.15397 -84.89621 23118 ft 456 kts 129°
2026-05-07 04:24 43.13698 -84.85996 22943 ft 444 kts 129°
2026-05-07 04:24 43.12006 -84.82506 22489 ft 438 kts 130°
2026-05-07 04:24 43.10290 -84.79092 22099 ft 432 kts 131°
2026-05-07 04:24 43.08582 -84.75733 21697 ft 427 kts 131°
2026-05-07 04:25 43.06894 -84.72415 21307 ft 422 kts 131°
2026-05-07 04:25 43.05251 -84.69178 20921 ft 418 kts 131°
2026-05-07 04:25 43.03579 -84.65872 20534 ft 414 kts 131°
2026-05-07 04:25 43.01950 -84.62648 20161 ft 411 kts 131°
2026-05-07 04:26 43.00355 -84.59489 19786 ft 407 kts 131°
2026-05-07 04:26 42.98752 -84.56317 19418 ft 404 kts 130°
2026-05-07 04:26 42.97159 -84.53167 19049 ft 401 kts 130°
2026-05-07 04:26 42.95577 -84.50044 18680 ft 399 kts 130°
2026-05-07 04:27 42.94002 -84.46930 18311 ft 397 kts 130°
2026-05-07 04:27 42.92456 -84.43820 17905 ft 395 kts 129°
2026-05-07 04:27 42.90927 -84.40717 17504 ft 392 kts 129°
2026-05-07 04:27 42.89412 -84.37642 17136 ft 389 kts 129°
2026-05-07 04:28 42.87906 -84.34590 16770 ft 386 kts 129°
2026-05-07 04:28 42.86409 -84.31562 16407 ft 383 kts 129°
2026-05-07 04:28 42.84925 -84.28569 16045 ft 380 kts 129°
2026-05-07 04:28 42.83447 -84.25593 15709 ft 377 kts 129°
2026-05-07 04:29 42.81978 -84.22639 15359 ft 375 kts 129°
2026-05-07 04:29 42.80518 -84.19705 15025 ft 373 kts 129°
2026-05-07 04:29 42.79068 -84.16793 14684 ft 370 kts 129°
2026-05-07 04:29 42.77621 -84.13891 14334 ft 369 kts 129°
2026-05-07 04:30 42.76186 -84.11017 14007 ft 367 kts 129°
2026-05-07 04:30 42.74756 -84.08152 13654 ft 365 kts 129°
2026-05-07 04:30 42.73355 -84.05341 13285 ft 363 kts 128°
2026-05-07 04:30 42.71941 -84.02507 12933 ft 361 kts 128°
2026-05-07 04:31 42.70537 -83.99695 12589 ft 357 kts 128°
2026-05-07 04:31 42.69154 -83.96909 12267 ft 353 kts 126°
2026-05-07 04:31 42.68175 -83.93849 11940 ft 354 kts 108°
2026-05-07 04:31 42.67574 -83.90627 11645 ft 350 kts 106°
2026-05-07 04:32 42.67019 -83.87457 11563 ft 339 kts 106°
2026-05-07 04:32 42.66474 -83.84373 11325 ft 334 kts 106°
2026-05-07 04:32 42.65923 -83.81334 11106 ft 328 kts 107°
2026-05-07 04:32 42.65377 -83.78385 11032 ft 317 kts 107°
2026-05-07 04:33 42.64839 -83.75519 10894 ft 310 kts 107°
2026-05-07 04:33 42.64307 -83.72701 10653 ft 307 kts 107°
2026-05-07 04:33 42.63775 -83.69902 10355 ft 306 kts 107°
2026-05-07 04:33 42.63243 -83.67106 10089 ft 304 kts 107°
2026-05-07 04:34 42.62720 -83.64358 9968 ft 297 kts 107°
2026-05-07 04:34 42.62187 -83.61683 9787 ft 291 kts 109°
2026-05-07 04:34 42.61628 -83.59059 9517 ft 289 kts 109°
2026-05-07 04:34 42.61073 -83.56489 9264 ft 286 kts 109°
2026-05-07 04:35 42.60509 -83.53871 9014 ft 284 kts 109°
2026-05-07 04:35 42.59957 -83.51309 8752 ft 282 kts 109°
2026-05-07 04:35 42.59418 -83.48798 8508 ft 280 kts 109°
2026-05-07 04:35 42.58876 -83.46271 8251 ft 278 kts 108°
2026-05-07 04:36 42.58340 -83.43767 8002 ft 275 kts 108°
2026-05-07 04:36 42.57806 -83.41277 7753 ft 273 kts 108°
2026-05-07 04:36 42.57278 -83.38821 7590 ft 268 kts 108°
2026-05-07 04:36 42.56766 -83.36438 7515 ft 258 kts 108°
2026-05-07 04:37 42.56259 -83.34143 7403 ft 251 kts 109°
2026-05-07 04:37 42.55580 -83.32001 7162 ft 245 kts 131°
2026-05-07 04:37 42.54294 -83.30597 6909 ft 235 kts 158°
2026-05-07 04:37 42.52799 -83.29727 6685 ft 236 kts 162°
2026-05-07 04:38 42.51225 -83.28900 6478 ft 256 kts 162°
2026-05-07 04:38 42.49487 -83.28018 6248 ft 274 kts 162°
2026-05-07 04:38 42.47674 -83.27116 5988 ft 279 kts 162°
2026-05-07 04:38 42.45868 -83.26232 5737 ft 280 kts 162°
2026-05-07 04:39 42.44040 -83.25347 5468 ft 277 kts 162°
2026-05-07 04:39 42.42228 -83.24479 5199 ft 274 kts 162°
2026-05-07 04:39 42.40438 -83.23633 4945 ft 271 kts 162°
2026-05-07 04:39 42.38660 -83.22805 4682 ft 269 kts 162°
2026-05-07 04:40 42.36897 -83.21994 4415 ft 267 kts 162°
2026-05-07 04:40 42.35136 -83.21187 4154 ft 267 kts 162°
2026-05-07 04:40 42.33370 -83.20383 3893 ft 268 kts 162°
2026-05-07 04:40 42.31570 -83.19733 3646 ft 269 kts 171°
2026-05-07 04:41 42.29723 -83.19317 3394 ft 268 kts 174°
2026-05-07 04:41 42.27896 -83.19524 3122 ft 262 kts 198°
2026-05-07 04:41 42.26202 -83.20296 3029 ft 252 kts 202°
2026-05-07 04:41 42.24587 -83.21093 2995 ft 241 kts 202°
2026-05-07 04:42 42.23039 -83.21859 2992 ft 235 kts 202°
2026-05-07 04:42 42.21512 -83.22618 2999 ft 233 kts 202°
2026-05-07 04:42 42.20014 -83.23364 3001 ft 232 kts 202°
2026-05-07 04:42 42.18513 -83.24112 2994 ft 226 kts 202°
2026-05-07 04:43 42.17078 -83.24825 3009 ft 214 kts 202°
2026-05-07 04:43 42.15688 -83.25518 3013 ft 213 kts 202°
2026-05-07 04:43 42.14303 -83.26223 3006 ft 213 kts 206°
2026-05-07 04:43 42.12960 -83.27066 2998 ft 213 kts 208°
2026-05-07 04:44 42.11624 -83.27944 2992 ft 214 kts 208°
2026-05-07 04:44 42.10286 -83.28831 2987 ft 214 kts 208°
2026-05-07 04:44 42.08952 -83.29718 2990 ft 214 kts 208°
2026-05-07 04:44 42.07620 -83.30608 2989 ft 213 kts 210°
2026-05-07 04:45 42.06601 -83.31914 2971 ft 194 kts 251°
2026-05-07 04:45 42.06602 -83.33595 3014 ft 179 kts 292°
2026-05-07 04:45 42.07034 -83.35190 2819 ft 183 kts 291°
2026-05-07 04:45 42.07429 -83.36788 2620 ft 180 kts 290°
2026-05-07 04:46 42.07804 -83.38339 2433 ft 166 kts 290°
2026-05-07 04:46 42.08149 -83.39769 2201 ft 156 kts 291°
2026-05-07 04:46 42.08740 -83.40953 2034 ft 154 kts 327°
2026-05-07 04:46 42.09777 -83.41137 2034 ft 156 kts
2026-05-07 04:47 42.10865 -83.40976 2009 ft 156 kts
2026-05-07 04:47 42.11917 -83.40622 2008 ft 157 kts 19°
2026-05-07 04:47 42.12894 -83.40065 2014 ft 144 kts 22°
2026-05-07 04:47 42.13771 -83.39459 2002 ft 141 kts 24°
2026-05-07 04:48 42.14611 -83.38843 1887 ft 140 kts 24°
2026-05-07 04:48 42.15466 -83.38211 1702 ft 140 kts 25°
2026-05-07 04:48 42.16329 -83.37573 1450 ft 142 kts 26°
2026-05-07 04:48 42.17193 -83.36933 1231 ft 143 kts 27°
2026-05-07 04:49 42.18068 -83.36284 1018 ft 143 kts 27°
2026-05-07 04:49 42.18940 -83.35638 821 ft 143 kts 27°
2026-05-07 04:49 42.19809 -83.34996 660 ft 141 kts 27°
2026-05-07 04:49 42.20593 -83.34421 650 ft 111 kts 28°
2026-05-07 04:50 42.20995 -83.34126 651 ft 20 kts 30°
2026-05-07 04:50 42.21132 -83.34023 651 ft 23 kts 29°
2026-05-07 04:50 42.21278 -83.33963 649 ft 22 kts 359°
2026-05-07 04:50 42.21429 -83.33974 649 ft 21 kts 357°
2026-05-07 04:51 42.21571 -83.33953 648 ft 21 kts 28°
2026-05-07 04:51 42.21696 -83.33862 647 ft 20 kts 28°
2026-05-07 04:51 42.21805 -83.33805 646 ft 15 kts 346°
2026-05-07 04:51 42.21845 -83.33920 648 ft 15 kts 270°
2026-05-07 04:52 42.21843 -83.34093 648 ft 20 kts 269°
2026-05-07 04:52 42.21842 -83.34276 648 ft 19 kts 269°
2026-05-07 04:52 42.21838 -83.34453 650 ft 19 kts 268°
2026-05-07 04:52 42.21835 -83.34623 649 ft 18 kts 268°
2026-05-07 04:53 42.21832 -83.34764 649 ft 15 kts 268°
2026-05-07 04:53 42.21830 -83.34913 649 ft 16 kts 269°
2026-05-07 04:53 42.21829 -83.35016 649 ft 17 kts 269°
2026-05-07 04:53 42.21826 -83.35170 648 ft 16 kts 268°
2026-05-07 04:54 42.21836 -83.35314 648 ft 15 kts 313°
2026-05-07 04:54 42.21935 -83.35315 648 ft 15 kts 26°
2026-05-07 04:54 42.22024 -83.35250 648 ft 14 kts 29°
2026-05-07 04:54 42.22101 -83.35176 650 ft 14 kts 64°
2026-05-07 04:55 42.22111 -83.35129 648 ft 5 kts 74°
2026-05-07 04:55 42.22150 -83.35077 648 ft 7 kts 358°
2026-05-07 04:55 42.22196 -83.35090 648 ft 3 kts 350°
2026-05-07 04:55 42.22202 -83.35091 648 ft 0 kts 350°